OBJECT G, 64882

Orbit data source: Space-Track

You're viewing an Uncataloged Satellite

Recently launched and/or uncataloged satellites may have evolving metadata. Metadata may include but not limited to: Owner, Maufacturer, Bus, Motor, and Mission.

OBJECT G, 64882 is a satellite in SSO that was launched on Fri, 25 Jul 2025 UTC via a SOYUZ-2-1B launch vehicle from the Vostochny Cosmodrome (VOSTO). Unknown objects in Earth's orbit typically refer to objects detected orbiting the Earth but have not yet been identified or cataloged. These objects could be anything from previously untracked satellites, spent rocket stages, debris from satellite collisions, or even natural meteoroids temporarily captured by Earth's gravity.

Loading next visibility...
Identifier
64882, 2025-155G
Orbit
SSO
Country
Flag of TBDTBD
Related business
None
Manufacturer
Unknown
Mission
Operational Commercial Technology
Bus & Motor
Unknown
Mass
Unknown
Launch date (UTC)
2025-07-25 (8 months ago)
Launch vehicle
SOYUZ-2-1B
Launch site
Vostochny Cosmodrome (VOSTO)
Object type
Unknown
Shape & HBR
Box, 1.1 m
Radar Cross Section
0.035 m², Small (<0.1 m²)

Expand to show TLE details & history
Last TLE update: 9 hours ago

TLE from 9 hours ago
0 OBJECT G
1 64882U 25155G   26073.90172272  .00013642  00000-0  50551-3 0  9999
2 64882  97.4487  42.2978 0008781 138.9681 221.2221 15.27719574 66351
Epoch: 2026-03-14T21:38Z
TLE epoch observation values (Epoch: 2026-03-14T21:38:28.843Z)
Latitude
0.00002°
Longitude
-94.83863°
Altitude
490.265 km
Speed
7.617 km/s
True Right ascension
02h 49m 11s
True Declination
0° 00' 00"
Sunlit
Object was in daylight at epoch
Visualization orbit readout
Latitude
Unknown
Longitude
Unknown
Altitude
Unknown
Speed
Unknown
Apparent Right ascension
Unknown
Apparent Declination
Unknown
Sunlit
N/A
Visualization observer readout
Local Sidereal Time
10:44:00
Azimuth
Unknown
Elevation
Unknown
Doppler factor
Unknown
Orbital elements
Apogee altitude
485.61 km
Perigee altitude
473.567 km
Semi-major axis
6,857.726 km
Eccentricity
0.00088
Inclination
97.4487°
RAAN
42.2978°
Arg. of periapsis
138.9681°
True anomaly
221.15585°
Mean anomaly
221.2221°
Eccentric anomaly
221.18897°
Mean motion
3.82184 °/min
Orbital period
94.2 mins
BSTAR
0.00050551
Loading maneuver chart data...
Computing Atmospheric mass density...
Loading historical data...
Loading historical data...
Loading historical data...
Loading historical data...
Loading historical data...
Loading historical data...
Loading historical data...

Documentation

Showing up to 5 results
|